Wind_Speed
23 26 28 29 31 33 36 37 36 38 40 40 41 41 40 39 39 39 38 38 37 35 34 34 33 33 33 33 32 32 31 30 30 29 28 26 24 23 22 21 19 18 17 16 14 14 15 14 14 14 12 9 8 10 12 13 13 11 9 8 7 6 6
23 25 27 29 30 33 37 40 41 41 41 41 41 41 40 40 39 39 39 38 38 36 35 35 35 34 34 33 33 33 32 32 31 30 29 27 26 25 24 22 20 19 19 17 16 17 16 15 15 14 12 9 8 9 12 13 12 9 7 6 6 6 5
22 24 27 29 30 32 35 40 42 43 42 41 41 40 40 40 39 39 39 38 38 37 36 36 36 36 35 34 34 34 33 33 32 32 31 29 28 28 26 23 22 21 20 18 18 18 16 16 15 13 11 9 8 9 11 12 11 9 7 7 7 6 6
22 24 26 28 30 31 33 38 42 44 43 42 41 40 40 39 37 37 37 37 37 37 38 38 38 37 36 35 35 35 34 34 33 33 32 31 31 29 27 26 24 23 21 20 19 18 16 16 15 13 11 9 8 9 11 12 12 10 9 8 8 7 7
21 23 24 26 28 29 31 34 39 43 44 43 41 40 39 38 37 37 37 37 37 36 37 38 38 38 37 37 36 36 35 35 34 34 33 32 32 31 29 27 26 24 23 21 20 18 17 17 16 13 10 8 8 9 11 13 13 12 10 10 9 8 8
20 23 25 27 28 30 32 34 36 40 43 43 43 42 39 38 37 37 36 36 36 36 36 37 38 38 38 38 37 37 36 36 35 35 34 34 33 32 30 29 28 26 24 22 21 19 18 18 17 13 9 8 8 8 10 14 14 13 12 12 11 10 9
19 23 25 26 27 29 31 32 32 34 37 40 42 42 40 39 38 37 37 36 36 36 36 37 38 39 39 38 38 38 37 37 36 35 35 35 34 33 32 31 29 27 26 25 23 21 19 19 17 14 12 11 9 9 12 15 16 14 14 15 14 12 11
17 21 23 24 25 26 26 29 30 30 31 34 38 40 41 39 38 38 39 38 36 36 37 37 37 38 39 39 39 39 38 38 37 36 36 36 35 35 34 31 31 30 28 26 24 22 20 20 19 17 15 14 12 11 13 16 17 16 16 17 16 15 13
14 18 20 21 22 23 23 26 28 29 31 33 35 37 39 39 38 38 39 38 38 38 37 37 37 38 38 39 40 39 39 39 38 37 37 37 38 38 34 32 33 32 30 28 25 24 22 21 22 20 18 16 14 14 15 16 17 17 17 19 19 17 15
12 15 17 18 20 21 22 23 26 30 33 35 36 36 38 39 39 39 39 39 38 38 37 37 38 38 39 39 39 40 40 40 39 38 38 38 40 39 35 34 36 34 31 30 28 27 25 24 24 22 20 19 17 17 18 19 17 16 18 21 21 19 16
11 13 14 17 19 21 22 24 28 33 35 36 36 36 37 38 39 39 40 40 39 38 37 37 38 39 40 39 39 40 41 40 40 39 39 40 41 41 38 37 38 37 34 33 32 29 28 27 27 25 23 22 20 20 21 20 17 14 17 22 23 20 17
10 12 13 16 19 21 22 24 29 33 35 36 36 36 36 36 36 37 38 40 39 39 38 37 37 38 39 40 40 40 40 40 40 40 40 40 41 42 39 37 39 40 37 35 34 32 31 30 29 29 27 23 20 21 22 21 17 14 16 21 23 21 18
10 11 13 16 19 21 23 26 30 32 34 35 35 35 34 34 34 34 35 37 38 38 37 36 36 37 38 39 39 40 40 40 40 40 40 41 41 42 40 38 40 41 39 37 36 35 34 33 32 31 29 25 22 21 22 22 19 16 17 20 22 21 19
12 12 14 16 20 23 26 30 32 33 34 34 34 34 33 32 32 32 33 34 35 36 35 34 35 37 38 38 39 40 40 39 39 40 41 41 41 42 40 39 40 40 38 37 37 39 39 37 36 35 32 29 25 23 24 24 20 18 19 21 22 22 20
14 14 16 19 21 23 27 32 34 35 35 34 34 34 33 31 31 32 32 33 34 34 33 33 34 36 36 37 38 39 40 39 39 39 37 35 39 42 39 39 40 37 36 38 40 42 41 39 38 37 36 33 28 26 26 25 21 20 21 22 22 21 20
14 15 18 21 22 24 27 31 34 35 35 34 34 33 32 31 31 30 31 31 32 32 32 32 33 33 34 34 34 35 36 36 36 36 32 29 33 38 39 39 38 34 35 41 44 43 42 40 39 39 40 36 29 27 27 26 23 22 23 24 23 21 20
16 16 19 22 23 24 27 29 31 35 36 35 34 32 31 30 29 29 30 29 29 29 29 30 30 29 29 29 29 30 30 31 30 31 31 29 30 33 36 38 36 33 35 41 45 45 43 40 39 41 41 35 28 26 27 27 24 21 24 26 24 21 20
18 19 21 23 25 26 28 31 34 37 37 35 33 32 30 30 29 28 28 27 26 26 25 26 26 25 24 23 24 25 26 25 26 27 27 27 29 31 33 35 34 32 35 40 44 46 45 41 41 44 42 34 28 27 28 29 25 22 24 28 25 21 20
18 18 20 24 26 29 31 34 36 37 37 34 32 31 29 27 27 26 25 24 22 22 22 21 21 20 19 19 20 21 21 22 23 22 21 22 25 28 30 32 31 31 35 40 44 46 46 45 44 45 41 34 30 28 29 30 27 23 24 27 24 20 19
16 15 17 21 24 27 30 31 32 35 35 32 30 28 26 26 25 24 22 21 19 19 19 18 17 16 16 15 16 17 17 19 20 18 16 18 21 24 27 28 29 30 33 39 44 46 47 47 46 44 39 33 30 28 28 30 28 25 23 24 23 21 19
16 15 16 18 20 24 29 31 32 33 33 31 30 29 28 26 24 21 20 19 19 18 17 16 15 14 13 14 14 14 15 16 17 14 16 19 21 22 24 24 25 28 31 36 43 46 47 48 47 43 37 33 29 27 28 30 31 28 26 23 23 22 21
16 16 17 19 20 23 28 31 32 31 30 30 29 28 26 24 22 21 21 21 19 18 17 16 15 14 13 13 13 13 12 14 14 14 16 19 18 19 22 23 23 26 30 35 40 43 45 46 45 40 36 33 30 28 30 31 30 29 27 23 23 24 22
15 16 17 19 20 23 26 27 28 28 28 27 26 24 23 23 23 24 23 22 20 19 18 16 14 13 12 12 12 11 10 11 12 14 15 16 16 18 21 21 21 25 29 32 35 39 43 46 44 39 34 33 32 30 31 30 27 26 25 22 24 25 24
13 15 16 18 20 22 24 24 24 25 25 26 25 25 25 26 26 25 24 23 21 19 17 15 13 11 10 10 9 8 9 10 11 12 14 15 15 16 16 17 20 24 26 28 31 35 38 41 42 39 35 34 33 31 29 28 25 24 21 20 23 26 24
13 15 18 19 21 23 24 26 27 26 26 28 29 29 29 29 28 26 24 22 20 18 16 14 12 10 9 8 8 7 9 10 9 10 11 12 13 14 13 14 18 21 23 24 27 31 32 33 35 33 29 28 29 28 26 25 24 22 21 19 22 25 25
17 18 19 18 20 24 28 30 30 29 29 31 32 33 32 30 28 26 24 22 20 17 15 13 11 10 9 8 8 8 9 9 8 9 10 11 12 13 12 12 15 18 20 20 21 25 27 27 26 24 22 21 21 22 23 24 23 23 21 19 20 23 24
17 18 20 22 24 28 30 30 31 32 33 34 35 34 32 30 28 25 23 21 19 17 15 13 11 10 9 9 9 9 10 8 7 9 9 10 12 13 12 11 12 15 16 15 17 19 20 21 20 19 19 18 17 18 19 21 22 21 20 19 18 20 22
17 18 21 24 26 27 30 32 34 35 35 34 33 31 30 28 26 24 22 19 17 15 13 12 11 10 9 9 10 10 9 7 8 9 10 11 13 15 12 10 12 13 12 13 16 16 15 16 17 17 17 16 17 18 19 20 21 21 20 18 18 19 20
20 21 23 25 27 28 32 35 36 35 34 32 30 28 26 24 23 21 18 16 14 13 12 11 10 10 9 9 10 9 8 8 9 10 11 12 13 14 11 10 11 13 13 15 17 15 13 14 16 17 15 13 15 18 19 19 20 20 18 17 17 17 18
24 25 26 28 30 32 34 35 34 32 30 28 26 25 23 20 19 18 16 13 11 10 10 9 9 8 7 7 8 8 7 7 8 9 10 12 12 11 11 11 12 13 14 15 15 13 13 15 17 16 13 11 12 16 16 15 15 16 16 17 17 18 20
30 31 31 32 32 32 31 30 29 27 26 24 22 21 20 17 15 14 12 10 9 8 7 6 6 5 5 5 5 6 6 6 7 8 10 11 11 11 11 12 13 14 15 14 12 13 15 16 16 15 12 9 9 11 11 10 11 13 14 15 17 18 20
31 31 31 30 29 26 25 24 23 22 22 21 19 18 17 15 13 11 10 9 8 6 4 4 3 3 3 3 3 4 5 5 6 7 9 10 10 10 11 12 13 14 14 12 12 14 15 15 15 15 12 8 7 9 10 9 10 13 15 16 15 16 16
29 28 28 27 25 23 22 22 21 20 19 18 17 15 13 12 11 10 8 7 6 4 3 2 2 2 2 2 2 3 4 5 6 7 7 8 9 9 10 11 12 13 12 12 14 16 16 15 15 16 14 10 8 9 11 10 11 14 16 17 17 16 16
26 25 24 22 21 20 19 19 18 17 17 16 15 12 11 9 8 7 6 4 4 3 3 2 1 1 2 4 4 3 5 6 7 7 7 8 9 10 11 11 12 13 12 12 14 16 16 15 14 15 15 11 9 10 11 11 11 13 13 16 18 17 17
23 21 20 18 17 16 16 15 14 13 13 13 12 10 9 7 6 5 4 4 4 4 4 3 2 2 4 6 5 4 6 7 7 8 7 9 12 14 14 13 13 13 13 13 14 15 17 16 13 13 13 11 9 11 11 10 11 12 11 13 15 16 16
21 19 18 17 15 14 13 12 11 10 10 9 8 7 7 6 5 5 5 5 6 5 5 5 5 5 7 8 6 5 6 6 7 8 9 10 13 14 13 13 12 13 13 14 14 14 15 15 13 13 12 9 9 11 12 11 11 11 12 13 14 14 15
19 18 16 15 14 13 12 10 10 9 7 7 6 6 5 6 6 7 7 7 7 7 6 7 8 9 10 10 8 8 8 7 8 9 10 11 11 11 12 11 10 9 10 12 13 13 13 14 15 15 13 12 12 13 15 15 13 12 13 13 14 14 15
17 16 15 13 12 11 9 8 8 7 6 6 6 5 6 7 7 8 9 8 8 9 10 11 11 10 10 10 10 10 10 8 7 8 9 9 8 9 10 9 7 7 8 10 11 12 13 15 15 14 15 16 14 13 14 15 14 13 14 14 14 14 14
Wind_Direction
203 201 200 199 199 203 209 212 212 216 219 220 222 223 223 223 223 224 225 224 223 222 222 223 225 226 227 228 229 229 230 231 233 236 238 238 236 237 237 236 239 240 239 239 237 238 239 237 238 240 241 237 225 219 215 212 212 212 219 226 228 236 239
205 203 200 200 200 203 210 216 219 221 222 222 223 223 223 223 223 223 224 225 224 222 221 222 223 224 226 228 229 229 229 231 233 235 237 237 236 237 237 237 241 243 243 242 239 239 240 240 240 237 235 232 226 219 214 212 211 210 219 230 234 243 243
205 204 200 201 202 203 207 214 220 222 222 223 224 223 223 223 222 222 224 225 224 222 222 223 223 224 226 228 229 230 230 231 233 235 237 237 237 238 239 241 242 243 243 240 236 236 236 234 234 232 231 228 224 220 215 214 213 211 217 229 237 244 245
204 203 201 202 204 205 206 212 218 221 221 222 224 223 222 221 221 222 224 225 225 223 221 222 223 224 226 228 230 232 232 232 233 235 237 238 240 241 241 242 242 241 241 238 232 231 231 231 231 229 227 224 226 225 218 215 215 215 218 227 237 243 245
203 200 201 203 204 204 206 209 214 219 220 221 223 224 223 222 222 223 224 225 226 225 222 222 224 225 227 229 231 233 234 235 235 236 237 238 240 240 239 240 241 239 240 239 232 229 229 230 228 226 225 225 228 227 224 223 220 219 221 227 233 237 241
202 198 200 202 201 204 209 211 213 217 219 220 222 224 224 224 224 224 224 225 225 226 225 224 225 226 228 229 231 233 235 237 237 236 237 238 239 240 238 239 240 239 239 238 234 230 229 228 225 223 224 224 226 232 235 233 227 224 227 227 227 229 232
202 199 199 201 201 203 207 210 210 210 213 217 221 223 224 224 225 225 226 226 226 226 226 226 226 228 229 230 231 234 235 237 238 238 238 238 239 239 238 238 239 238 237 237 234 230 225 223 224 225 220 217 227 241 241 235 228 230 237 233 224 225 228
205 201 201 202 203 203 203 207 207 202 204 209 214 219 221 222 222 224 226 227 227 227 226 227 227 228 230 231 232 234 235 237 239 238 239 238 238 238 237 237 239 238 237 236 232 228 223 222 228 228 218 216 225 232 231 228 224 228 239 235 223 224 229
208 203 204 203 204 205 201 202 202 198 201 207 210 214 218 219 219 222 225 227 228 229 227 227 229 230 232 233 233 235 235 237 239 239 240 239 239 239 237 238 240 239 237 236 232 227 224 227 231 226 217 218 226 228 224 220 220 228 239 235 224 225 231
203 199 204 205 203 202 199 197 198 199 204 210 211 211 216 219 219 221 224 226 228 230 230 229 230 231 234 234 234 236 236 238 239 240 240 240 240 240 237 236 240 240 237 235 233 228 228 233 233 226 219 219 226 229 224 218 218 228 237 233 227 227 231
199 196 198 201 199 198 196 193 197 204 208 211 212 212 215 218 219 221 224 226 227 229 231 231 230 231 234 236 236 237 237 238 239 240 241 241 241 241 237 234 238 240 236 234 233 230 232 235 232 226 222 220 224 229 225 220 221 229 234 230 228 230 232
200 197 195 197 196 196 193 193 200 207 210 211 212 213 215 218 220 221 224 226 226 228 230 231 230 229 232 237 238 238 239 239 240 241 242 242 243 244 241 236 236 238 237 234 233 232 232 234 231 227 222 218 225 232 227 222 225 232 232 227 228 234 235
209 199 198 196 193 193 194 198 206 209 210 211 212 213 214 216 217 218 221 223 226 228 228 228 229 229 231 236 238 240 241 242 242 244 244 245 246 246 244 239 236 238 238 235 235 235 235 236 234 230 223 219 227 235 229 224 226 232 230 224 228 237 240
218 200 196 195 195 197 199 204 209 210 210 211 211 212 214 214 214 215 217 220 223 225 224 224 228 231 233 235 236 240 245 246 247 247 247 247 248 248 246 239 233 236 239 239 239 238 238 241 240 234 228 223 228 231 225 223 227 233 234 227 226 235 242
218 202 195 198 203 206 207 209 210 210 210 210 210 211 213 213 214 215 216 219 223 224 224 225 230 235 237 239 240 244 249 251 251 249 247 245 247 249 245 235 229 233 241 245 244 241 241 242 241 237 231 226 227 225 219 221 229 235 238 231 224 231 241
221 211 205 208 214 218 216 212 211 210 210 209 209 210 210 211 212 213 215 218 222 224 226 229 234 239 242 245 247 249 251 254 255 252 248 244 247 250 246 238 233 234 240 243 244 244 244 242 240 237 231 226 222 219 218 224 232 238 239 230 223 230 241
228 222 215 215 219 222 217 211 210 211 210 209 208 206 206 206 208 210 213 216 220 224 227 231 236 241 244 248 252 253 254 257 258 257 252 248 251 253 251 247 242 239 242 243 243 244 243 240 237 233 227 222 218 219 223 226 232 243 243 228 222 231 241
231 226 219 217 220 221 216 210 210 211 210 208 205 202 201 203 206 208 211 214 217 221 226 231 235 241 245 249 253 255 256 257 259 258 253 252 257 257 254 254 249 242 241 242 243 243 241 238 236 231 226 222 220 223 225 226 234 248 241 226 223 233 239
239 232 222 220 222 222 217 211 210 211 209 204 200 199 198 199 201 203 204 208 212 216 222 228 231 236 242 245 250 254 255 256 258 255 246 248 256 256 254 256 253 245 239 236 238 241 239 237 234 230 227 224 223 226 226 228 240 248 233 223 226 232 236
242 236 225 219 218 218 213 207 206 209 207 202 198 196 194 195 197 198 200 203 206 208 213 218 222 227 233 236 241 246 248 253 255 247 235 241 250 253 256 257 253 249 243 236 235 236 235 234 232 228 226 224 226 230 229 233 245 245 229 225 230 230 234
232 227 219 212 207 208 211 209 206 207 205 200 197 194 192 192 193 193 193 195 195 195 198 203 207 212 218 223 230 236 241 249 249 236 233 244 249 252 258 258 254 251 244 237 237 236 231 229 229 230 229 227 228 232 233 240 251 247 232 231 234 232 236
226 216 211 213 208 206 210 209 206 203 199 196 195 193 190 187 184 183 184 184 184 182 183 188 194 201 209 216 226 232 237 248 246 233 236 244 240 242 253 259 256 249 242 240 242 237 229 225 226 229 230 227 227 233 239 247 253 246 238 240 239 234 238
225 213 211 219 220 217 214 208 203 203 197 190 187 185 181 179 178 177 175 173 173 174 176 182 188 195 204 213 224 231 236 244 241 233 237 237 228 234 252 259 254 245 243 245 244 236 230 229 229 228 226 227 231 240 247 249 247 244 246 250 242 234 238
215 205 201 205 207 210 208 198 194 197 193 184 178 174 172 172 171 168 166 166 169 172 173 176 182 190 200 212 222 226 233 235 223 220 232 231 223 229 242 249 249 246 247 249 244 235 232 234 235 233 233 238 242 246 249 246 242 245 255 255 242 235 238
191 187 190 194 197 198 191 180 177 181 183 179 171 166 165 163 161 160 161 164 167 167 167 170 179 186 196 211 217 219 230 230 210 206 224 226 221 224 227 233 239 244 250 249 239 233 232 234 235 235 238 242 243 241 242 239 237 247 258 256 244 238 240
177 175 176 177 183 186 179 170 168 171 174 171 162 157 157 156 156 158 160 162 163 164 165 171 180 189 201 216 218 218 232 234 210 197 209 216 219 220 220 224 229 239 249 245 228 223 225 225 227 230 232 235 234 233 235 235 238 250 259 258 250 243 242
166 164 161 162 173 178 170 162 162 163 162 159 154 153 154 154 155 157 159 161 164 165 169 178 189 200 214 225 226 228 234 232 208 195 196 204 214 218 219 223 225 231 237 225 207 207 212 213 218 223 225 227 225 223 228 235 244 255 260 258 253 248 246
146 148 155 161 168 168 160 156 156 154 152 150 150 151 153 154 155 157 160 163 165 168 177 188 200 213 224 232 237 239 234 216 203 201 197 196 206 214 221 227 222 219 213 200 197 202 204 209 215 217 216 218 220 223 232 244 253 259 258 253 248 247 250
131 136 146 152 156 156 153 150 148 145 144 146 147 149 151 154 156 157 160 163 167 175 188 200 211 222 230 238 245 243 228 209 206 209 205 200 200 206 216 218 208 202 195 194 200 204 206 210 212 209 206 212 225 236 244 250 253 252 247 245 246 249 256
117 121 128 137 144 147 146 142 139 139 140 142 145 147 149 152 158 161 164 167 174 187 201 212 220 229 237 242 246 242 228 216 212 208 204 201 197 196 202 201 193 189 192 197 202 204 203 203 201 200 203 213 232 243 243 238 238 236 234 238 245 251 258
115 118 122 128 133 136 137 135 133 135 136 138 143 148 148 153 163 168 169 174 187 198 208 216 222 232 238 234 234 236 226 213 209 203 199 200 196 188 191 194 189 188 195 202 202 198 196 194 195 198 203 208 227 242 238 224 222 230 237 240 242 245 250
112 114 119 123 125 128 131 130 131 133 135 138 142 147 151 161 173 180 182 188 197 202 204 206 208 231 241 228 226 236 225 204 195 192 193 197 194 186 189 193 190 191 199 204 199 192 190 190 192 196 201 213 241 258 256 235 215 220 232 236 236 238 242
109 112 117 120 122 125 128 129 132 136 139 141 144 149 158 170 181 189 191 191 189 185 179 177 200 248 239 189 182 217 211 194 189 187 187 190 189 186 190 193 195 201 205 200 195 194 192 192 198 204 212 231 261 266 262 244 212 207 218 223 224 230 234
107 109 112 114 117 122 126 128 130 134 140 145 150 158 168 175 182 187 184 175 171 165 156 153 186 262 177 147 149 177 186 186 187 185 182 185 188 193 196 196 201 209 209 201 199 199 197 197 205 216 226 244 258 251 251 243 214 200 207 212 215 222 230
106 107 110 113 116 121 125 128 130 134 139 144 150 162 170 172 174 175 171 167 161 151 147 148 134 126 140 140 146 166 171 178 184 178 179 192 197 197 199 201 203 203 202 204 203 203 203 204 210 226 239 250 246 229 224 225 212 198 198 205 210 217 225
107 108 110 113 116 118 120 123 127 132 136 139 148 161 166 167 175 175 168 163 153 144 150 147 128 126 138 142 152 166 166 173 182 177 181 199 206 203 202 206 206 198 198 207 212 213 213 214 222 240 243 232 218 210 206 209 212 205 200 207 211 214 221
105 108 109 112 115 117 117 119 122 128 134 139 147 159 166 171 177 169 159 155 147 142 145 139 131 134 142 147 165 181 172 169 183 187 190 198 203 199 197 202 206 200 198 205 213 216 217 219 231 242 231 204 196 203 204 207 213 209 204 209 214 217 223
103 106 108 112 118 120 122 128 132 138 145 147 151 161 165 165 164 158 156 153 146 143 143 137 133 139 145 153 173 182 170 165 178 189 195 195 188 184 188 191 199 201 193 190 199 209 214 217 222 222 207 194 194 199 200 206 212 211 209 214 218 222 229
Height
1460 1461 1464 1468 1469 1472 1475 1478 1482 1485 1487 1490 1492 1495 1498 1502 1505 1507 1509 1511 1514 1517 1520 1522 1524 1525 1527 1528 1530 1532 1534 1535 1537 1539 1540 1543 1545 1546 1547 1548 1549 1550 1552 1553 1554 1555 1555 1556 1557 1557 1558 1558 1559 1559 1560 1560 1561 1562 1562 1563 1563 1564 1564
1454 1457 1459 1462 1464 1467 1469 1473 1477 1480 1483 1486 1488 1491 1494 1497 1500 1502 1505 1507 1510 1514 1516 1518 1520 1521 1523 1525 1527 1529 1531 1532 1534 1536 1538 1540 1542 1543 1544 1546 1547 1549 1550 1551 1552 1553 1553 1554 1555 1556 1556 1557 1557 1558 1559 1559 1560 1561 1562 1562 1563 1563 1563
1450 1452 1454 1457 1459 1461 1464 1467 1471 1474 1478 1481 1484 1487 1490 1492 1495 1498 1501 1504 1507 1510 1513 1515 1516 1518 1520 1522 1524 1526 1527 1530 1531 1533 1535 1537 1539 1540 1542 1544 1546 1547 1548 1549 1550 1550 1551 1552 1553 1554 1554 1555 1556 1556 1557 1558 1559 1560 1561 1562 1562 1562 1562
1445 1447 1450 1453 1455 1457 1460 1462 1465 1469 1473 1476 1479 1483 1485 1488 1492 1495 1498 1500 1503 1506 1508 1511 1512 1514 1517 1519 1521 1523 1524 1527 1529 1530 1533 1534 1536 1538 1540 1542 1543 1544 1545 1546 1547 1548 1549 1551 1551 1552 1552 1553 1554 1555 1556 1557 1557 1558 1559 1560 1561 1561 1561
1442 1444 1447 1449 1451 1454 1456 1458 1461 1463 1468 1472 1475 1478 1482 1486 1489 1491 1495 1497 1500 1502 1504 1507 1509 1511 1513 1515 1517 1519 1521 1524 1526 1528 1530 1531 1533 1535 1537 1539 1540 1541 1543 1544 1545 1546 1548 1549 1549 1550 1551 1552 1553 1554 1555 1556 1556 1556 1557 1558 1559 1559 1560
1438 1440 1442 1444 1447 1449 1451 1453 1456 1459 1463 1467 1470 1474 1478 1482 1485 1488 1491 1493 1496 1499 1501 1504 1506 1507 1510 1511 1514 1516 1518 1521 1522 1525 1527 1528 1530 1532 1535 1536 1537 1539 1540 1542 1543 1544 1545 1547 1548 1548 1549 1550 1551 1552 1554 1555 1555 1555 1555 1556 1557 1557 1558
1433 1435 1437 1440 1442 1444 1447 1450 1453 1456 1460 1463 1467 1470 1474 1478 1481 1484 1487 1489 1492 1495 1497 1499 1501 1503 1506 1508 1510 1513 1515 1517 1519 1521 1523 1525 1527 1530 1532 1533 1534 1536 1537 1538 1539 1541 1542 1544 1545 1546 1546 1546 1546 1548 1550 1551 1552 1553 1553 1553 1554 1555 1556
1430 1432 1434 1436 1439 1441 1444 1447 1450 1453 1456 1459 1463 1466 1470 1474 1477 1480 1483 1485 1489 1491 1493 1495 1497 1500 1502 1504 1507 1509 1511 1513 1515 1517 1520 1522 1524 1526 1528 1530 1531 1533 1534 1535 1537 1538 1539 1540 1542 1543 1544 1543 1543 1543 1545 1547 1548 1550 1550 1551 1552 1553 1553
1428 1429 1432 1434 1436 1439 1442 1444 1447 1450 1453 1456 1459 1462 1466 1469 1473 1476 1479 1482 1485 1487 1489 1492 1494 1496 1498 1500 1503 1505 1508 1509 1511 1514 1516 1518 1520 1521 1525 1527 1528 1530 1532 1533 1534 1535 1536 1537 1538 1539 1540 1541 1542 1541 1541 1543 1544 1547 1548 1549 1549 1550 1551
1425 1428 1430 1432 1434 1436 1439 1441 1443 1446 1449 1451 1455 1458 1462 1465 1469 1472 1476 1479 1481 1483 1485 1488 1491 1493 1494 1496 1499 1501 1503 1505 1507 1510 1512 1514 1515 1517 1521 1523 1524 1527 1529 1530 1531 1532 1533 1534 1534 1536 1537 1538 1539 1539 1539 1540 1540 1543 1546 1547 1548 1548 1549
1423 1426 1427 1430 1432 1434 1436 1438 1439 1441 1444 1447 1451 1455 1458 1461 1465 1469 1472 1475 1477 1479 1482 1485 1487 1489 1490 1492 1495 1497 1499 1501 1503 1505 1507 1509 1510 1512 1516 1519 1520 1522 1525 1526 1527 1528 1529 1530 1531 1532 1533 1535 1536 1537 1537 1538 1538 1539 1541 1544 1546 1546 1546
1421 1423 1425 1428 1429 1431 1434 1435 1436 1438 1440 1444 1447 1451 1455 1458 1462 1465 1468 1471 1473 1476 1479 1481 1483 1485 1487 1489 1491 1492 1495 1497 1499 1501 1502 1504 1506 1508 1511 1515 1515 1517 1520 1521 1523 1524 1525 1526 1526 1528 1529 1531 1532 1534 1535 1536 1537 1536 1537 1541 1543 1544 1543
1418 1420 1423 1425 1427 1429 1431 1432 1433 1435 1438 1441 1445 1448 1452 1455 1458 1462 1464 1466 1469 1472 1475 1477 1479 1481 1483 1485 1487 1488 1490 1493 1495 1497 1498 1500 1502 1504 1507 1510 1511 1512 1516 1518 1519 1520 1520 1521 1522 1524 1525 1526 1526 1529 1532 1534 1535 1534 1535 1537 1540 1541 1542
1416 1418 1420 1422 1424 1426 1427 1428 1430 1432 1435 1438 1442 1445 1449 1452 1455 1458 1460 1463 1466 1469 1472 1474 1475 1477 1480 1482 1484 1485 1487 1489 1492 1494 1495 1497 1499 1500 1503 1505 1507 1510 1515 1517 1516 1515 1515 1516 1518 1519 1520 1521 1521 1523 1527 1529 1531 1532 1532 1534 1536 1539 1540
1414 1415 1417 1418 1420 1422 1424 1425 1426 1429 1432 1435 1439 1442 1445 1449 1452 1454 1457 1460 1462 1466 1468 1471 1472 1474 1477 1479 1481 1483 1484 1486 1488 1490 1493 1494 1495 1496 1499 1501 1503 1510 1515 1514 1512 1510 1510 1512 1514 1514 1516 1517 1517 1520 1522 1524 1527 1529 1530 1532 1533 1535 1537
1411 1413 1414 1414 1415 1417 1421 1423 1424 1426 1429 1432 1436 1439 1442 1445 1448 1450 1454 1457 1459 1463 1465 1468 1470 1472 1474 1476 1478 1480 1482 1483 1485 1487 1489 1491 1491 1492 1495 1496 1499 1505 1509 1507 1506 1505 1506 1508 1509 1510 1510 1512 1515 1518 1520 1521 1523 1526 1528 1530 1531 1533 1535
1408 1409 1410 1411 1411 1413 1417 1420 1422 1424 1426 1429 1432 1435 1438 1441 1444 1447 1451 1454 1457 1460 1462 1465 1467 1469 1471 1473 1475 1478 1479 1480 1482 1484 1485 1487 1487 1489 1490 1491 1494 1499 1501 1500 1500 1500 1501 1504 1506 1506 1506 1509 1514 1517 1518 1519 1520 1523 1526 1528 1529 1531 1532
1404 1405 1406 1407 1408 1409 1412 1415 1417 1419 1421 1425 1429 1432 1435 1438 1441 1445 1448 1451 1454 1457 1460 1462 1464 1467 1469 1471 1473 1475 1476 1478 1479 1480 1482 1483 1484 1485 1486 1487 1489 1493 1494 1494 1495 1496 1497 1500 1502 1503 1503 1507 1512 1514 1515 1516 1518 1520 1523 1525 1527 1528 1529
1401 1402 1403 1404 1404 1405 1407 1410 1412 1415 1418 1422 1425 1429 1432 1436 1439 1442 1445 1449 1452 1455 1457 1460 1462 1464 1466 1468 1470 1471 1473 1475 1475 1477 1478 1479 1481 1482 1482 1483 1485 1487 1489 1489 1490 1493 1494 1495 1497 1499 1502 1505 1509 1511 1513 1514 1516 1518 1520 1522 1524 1525 1526
1398 1399 1401 1401 1401 1402 1405 1408 1411 1413 1416 1420 1424 1427 1431 1434 1437 1441 1444 1447 1450 1452 1455 1457 1459 1462 1464 1466 1467 1468 1470 1471 1472 1474 1475 1476 1477 1478 1478 1479 1481 1483 1485 1486 1487 1489 1490 1492 1493 1496 1500 1503 1506 1508 1510 1512 1513 1516 1518 1520 1521 1522 1523
1394 1396 1398 1399 1400 1400 1402 1405 1408 1410 1414 1418 1421 1424 1428 1432 1435 1439 1442 1445 1447 1450 1452 1455 1457 1459 1461 1463 1464 1465 1467 1468 1470 1472 1472 1472 1473 1474 1475 1476 1477 1479 1481 1483 1484 1485 1486 1489 1491 1493 1497 1501 1504 1506 1507 1508 1510 1513 1515 1517 1518 1519 1520
1390 1393 1394 1396 1397 1398 1400 1403 1406 1409 1412 1416 1419 1422 1426 1430 1433 1437 1439 1442 1445 1447 1450 1452 1454 1456 1458 1460 1461 1463 1464 1466 1467 1469 1469 1469 1470 1471 1472 1473 1474 1476 1478 1480 1481 1482 1484 1486 1489 1491 1495 1499 1501 1503 1505 1506 1508 1509 1511 1513 1515 1516 1517
1388 1390 1391 1392 1395 1396 1398 1401 1405 1408 1411 1414 1418 1421 1425 1428 1431 1434 1436 1440 1443 1445 1448 1450 1452 1454 1456 1458 1459 1461 1462 1464 1465 1466 1466 1467 1468 1469 1470 1471 1471 1473 1475 1476 1477 1479 1481 1484 1486 1489 1492 1495 1498 1500 1502 1504 1505 1506 1508 1510 1512 1513 1514
1385 1387 1388 1389 1392 1393 1395 1399 1402 1407 1411 1413 1416 1419 1422 1426 1429 1432 1435 1438 1441 1444 1446 1448 1450 1452 1454 1456 1457 1459 1460 1461 1463 1464 1464 1465 1467 1468 1469 1469 1470 1470 1472 1473 1474 1476 1479 1482 1485 1488 1491 1493 1495 1497 1499 1501 1502 1503 1505 1506 1508 1509 1511
1382 1384 1385 1386 1389 1391 1393 1395 1398 1404 1408 1411 1413 1416 1420 1424 1427 1430 1434 1436 1439 1442 1443 1446 1449 1451 1452 1454 1455 1456 1458 1458 1460 1462 1463 1464 1465 1466 1467 1468 1468 1469 1469 1471 1472 1475 1478 1481 1484 1487 1489 1491 1492 1494 1496 1498 1499 1500 1501 1503 1505 1506 1507
1380 1381 1382 1384 1387 1389 1391 1393 1395 1400 1405 1408 1411 1414 1418 1422 1426 1429 1432 1435 1438 1440 1441 1444 1447 1448 1450 1451 1453 1454 1455 1456 1458 1459 1461 1462 1464 1465 1466 1467 1467 1467 1468 1469 1472 1475 1478 1480 1483 1486 1487 1488 1490 1491 1493 1495 1496 1497 1498 1500 1502 1503 1504
1379 1380 1381 1382 1385 1388 1391 1392 1395 1399 1403 1407 1410 1413 1417 1421 1424 1427 1431 1433 1435 1437 1439 1442 1444 1445 1447 1449 1450 1452 1453 1454 1456 1457 1459 1460 1462 1463 1464 1465 1466 1467 1467 1469 1472 1474 1476 1479 1481 1483 1485 1486 1488 1489 1491 1492 1494 1495 1495 1497 1498 1499 1501
1379 1380 1380 1381 1385 1389 1391 1393 1396 1400 1404 1407 1411 1414 1417 1420 1423 1426 1429 1431 1433 1435 1437 1439 1441 1443 1445 1447 1448 1450 1451 1452 1454 1455 1456 1458 1459 1461 1461 1462 1464 1466 1467 1469 1471 1473 1475 1477 1479 1481 1482 1484 1485 1487 1488 1490 1491 1492 1492 1494 1495 1496 1497
1378 1379 1380 1382 1387 1390 1392 1394 1398 1402 1405 1408 1412 1415 1418 1421 1424 1426 1428 1430 1432 1434 1436 1438 1439 1441 1442 1444 1446 1448 1449 1450 1451 1453 1454 1456 1457 1458 1459 1460 1462 1464 1466 1468 1470 1472 1473 1475 1476 1478 1480 1482 1483 1484 1486 1487 1487 1488 1489 1490 1491 1492 1493
1379 1380 1382 1384 1388 1391 1394 1397 1400 1403 1406 1409 1413 1416 1419 1421 1424 1426 1427 1429 1431 1433 1436 1437 1438 1439 1440 1442 1444 1445 1446 1448 1450 1451 1453 1454 1455 1457 1458 1459 1461 1463 1465 1467 1468 1470 1471 1473 1474 1476 1478 1480 1481 1482 1483 1484 1484 1484 1485 1486 1487 1488 1489
1381 1383 1386 1388 1392 1395 1398 1400 1403 1406 1408 1411 1414 1416 1419 1422 1425 1426 1427 1428 1431 1433 1435 1436 1437 1438 1439 1440 1442 1443 1445 1446 1448 1450 1452 1453 1454 1456 1457 1459 1460 1462 1464 1465 1467 1468 1469 1471 1473 1475 1477 1478 1479 1480 1480 1481 1481 1481 1481 1482 1484 1485 1487
1384 1387 1390 1393 1396 1399 1401 1402 1404 1407 1409 1412 1415 1416 1419 1422 1425 1425 1426 1428 1430 1432 1434 1434 1435 1436 1437 1439 1440 1442 1444 1446 1448 1450 1451 1452 1454 1455 1457 1458 1459 1461 1462 1463 1465 1466 1468 1469 1471 1473 1475 1476 1477 1478 1478 1479 1480 1480 1480 1480 1482 1483 1484
1386 1389 1392 1395 1397 1400 1402 1403 1405 1407 1409 1411 1414 1417 1419 1422 1423 1424 1426 1427 1429 1431 1432 1433 1434 1435 1437 1438 1439 1441 1443 1445 1447 1449 1451 1453 1454 1455 1456 1457 1459 1460 1461 1462 1463 1464 1466 1468 1470 1472 1473 1474 1475 1476 1476 1478 1479 1480 1480 1480 1481 1482 1483
1389 1392 1395 1397 1400 1402 1403 1405 1407 1408 1409 1411 1413 1417 1420 1422 1423 1424 1426 1427 1428 1429 1430 1432 1433 1434 1436 1437 1439 1440 1442 1445 1447 1449 1451 1453 1454 1455 1456 1457 1458 1459 1460 1461 1462 1463 1464 1466 1469 1470 1472 1473 1474 1474 1475 1476 1477 1478 1479 1480 1480 1481 1482
1391 1394 1397 1399 1402 1404 1406 1408 1409 1410 1411 1413 1415 1418 1420 1422 1423 1425 1425 1427 1428 1428 1430 1431 1432 1433 1435 1437 1439 1440 1442 1444 1446 1447 1450 1451 1452 1453 1454 1455 1456 1457 1458 1459 1460 1461 1463 1465 1467 1469 1470 1471 1472 1472 1473 1475 1476 1476 1477 1478 1478 1479 1480
1394 1397 1399 1401 1404 1406 1407 1409 1411 1412 1414 1415 1417 1418 1420 1421 1422 1424 1425 1426 1427 1428 1429 1430 1431 1433 1435 1437 1439 1441 1442 1444 1445 1447 1448 1449 1450 1451 1453 1454 1455 1456 1457 1458 1459 1461 1462 1464 1465 1467 1468 1469 1470 1471 1472 1473 1474 1474 1475 1475 1476 1477 1478
1397 1399 1401 1403 1405 1407 1409 1410 1412 1414 1415 1416 1417 1418 1419 1420 1422 1423 1425 1426 1427 1428 1429 1429 1431 1433 1435 1438 1440 1441 1442 1444 1445 1446 1447 1448 1449 1450 1452 1453 1454 1455 1456 1457 1458 1459 1461 1462 1463 1465 1466 1467 1468 1469 1470 1471 1472 1473 1473 1473 1474 1475 1476
1400 1401 1403 1404 1406 1408 1409 1411 1413 1414 1415 1416 1417 1418 1419 1421 1422 1423 1424 1425 1426 1427 1428 1430 1432 1434 1436 1438 1439 1440 1441 1443 1444 1445 1446 1447 1448 1449 1450 1451 1452 1453 1454 1455 1456 1458 1459 1461 1462 1463 1465 1466 1466 1467 1469 1470 1470 1471 1471 1472 1473 1474 1474